x

8539094 - Burlington, Delaware River, Nj (bdrn4) Weather Station

3:36am - Mon 26th Sep 2016 All times are EDT. -4 hours from GMT.

  • Wind
    1mph, 3mph gusts
  • Sea Temp 75°f
  • Air Temp 53°f
  • Sea Pressure 1021.1mb
  • 8539094 - Burlington, Delaware River, Nj
  • 8539094 - Burlington, Delaware River, Nj

More Historic Weather Station data

Upgrade to MSW Pro to gain access to the past 30 days of data for over 8000 Wavebouys and Weather Stations around the globe.

Join Pro

Comparision Forecast

View Surf forecast
   
Mon 09/26 3:36am 1 3 mph 1021.1mb 75f 53f
3:30am 1 2 mph 1021.1mb 75f 53f
3:24am 2 3 mph 1021.2mb 75f 53f
3:18am  -  2 mph 1021.2mb 75f 54f
3:12am 2 3 mph 1021.2mb 75f 55f
3:06am  -  2 mph 1021.2mb 75f 54f
3:00am  -  2 mph 1021.2mb 75f 55f
2:36am 1 2 mph 1021.5mb 75f 55f
2:30am 1 3 mph 1021.5mb 75f 55f
2:24am 2 3 mph 1021.5mb 75f 55f
2:18am  -  2 mph 1021.6mb 75f 54f
2:12am 1 5 mph 1021.6mb 75f 55f
2:06am 2 5 mph 1021.7mb 75f 55f
2:00am 2 5 mph 1021.7mb 75f 55f
1:36am 3 5 mph 1021.7mb 75f 55f
1:30am 1 5 mph 1021.8mb 75f 55f
1:24am  -  2 mph 1021.8mb 75f 55f
1:18am 2 3 mph 1021.8mb 75f 56f
1:12am 3 5 mph 1022mb 75f 55f
1:06am  -  2 mph 1022mb 75f 56f
1:00am  -  3 mph 1022mb 75f 56f
12:36am  -  2 mph 1021.8mb 75f 56f
12:30am 1 2 mph 1021.8mb 75f 57f
12:24am  -  2 mph 1021.8mb 75f 57f
12:18am  -  1 mph 1021.7mb 75f 57f
12:12am  -  2 mph 1021.7mb 75f 57f
12:06am 1 2 mph 1021.7mb 75f 58f
12:00am 2 3 mph 1021.7mb 75f 58f
Sun 09/25 11:36pm  -  1 mph 1021.9mb 75f 59f
11:30pm  -  1 mph 1021.8mb 75f 59f
11:24pm  -  1 mph 1021.9mb 75f 59f
11:18pm  -  1 mph 1021.9mb 75f 59f
11:12pm  -  2 mph 1021.9mb 75f 59f
11:06pm  -  1 mph 1022mb 75f 59f
11:00pm  -  1 mph 1022mb 75f 60f
10:36pm 2
mph
1021.9mb 75f 59f
10:30pm 2 3 mph 1021.9mb 75f 59f
10:24pm 1 2 mph 1021.9mb 75f 58f
10:18pm 2 3 mph 1021.9mb 75f 58f
10:12pm 2 3 mph 1021.9mb 75f 59f
10:06pm  -  2 mph 1021.9mb 75f 60f
10:00pm 1 2 mph 1021.8mb 75f 60f
9:36pm 2 3 mph 1021.5mb 75f 60f
9:30pm 2 5 mph 1021.4mb 75f 60f
9:24pm 2 5 mph 1021.3mb 75f 60f
9:18pm 2 5 mph 1021.3mb 75f 61f
9:12pm 2 5 mph 1021.3mb 75f 61f
9:06pm  -  2 mph 1021.2mb 75f 61f
9:00pm  -  1 mph 1021.2mb 75f 62f
8:36pm  -  1 mph 1021mb 75f 63f
8:30pm  -  mph 1021mb 75f 64f
8:24pm  -  mph 1020.9mb 75f 63f
8:18pm  -  1 mph 1020.9mb 75f 63f
8:12pm  -  1 mph 1020.9mb 75f 64f
8:06pm  -  1 mph 1020.9mb 75f 64f
8:00pm  -  mph 1020.9mb 75f 64f
7:36pm  -  mph 1020.7mb 75f 66f
7:30pm  -  1 mph 1020.7mb 75f 65f
7:24pm  -  2 mph 1020.6mb 75f 66f
7:18pm  -  1 mph 1020.6mb 75f 66f
7:12pm  -  1 mph 1020.6mb 75f 67f
7:06pm  -  mph 1020.4mb 75f 67f
7:00pm  -  1 mph 1020.4mb 75f 67f
6:36pm 1 2 mph 1020.3mb 75f 69f
6:30pm  -  2 mph 1020.3mb 75f 69f
6:24pm  -  mph 1020.3mb 75f 70f
6:18pm 1 2 mph 1020.2mb 75f 71f
6:12pm 2 3 mph 1020.2mb 75f 71f
6:06pm  -  2 mph 1020.1mb 75f 72f
6:00pm  -  1 mph 1020.1mb 75f 72f
5:36pm  -  mph 1020mb 75f 71f
5:30pm 3 6 mph 1020mb 75f 71f
5:24pm  -  mph 1019.9mb 75f 71f
5:18pm 1 5 mph 1019.9mb 75f 72f
5:12pm 1 7 mph 1019.9mb 75f 71f
5:06pm 3 7 mph 1019.8mb 75f 72f
5:00pm 3 6 mph 1019.9mb 75f 71f
4:36pm 5 7 mph 1019.8mb 75f 71f
4:30pm  -  1 mph 1019.9mb 75f 73f
4:24pm  -  2 mph 1020mb 75f 71f
4:18pm  -  5 mph 1020mb 75f 70f
4:12pm 3 6 mph 1020mb 75f 70f
4:06pm 5 9 mph 1020.1mb 75f 71f
4:00pm 6 8 mph 1020.2mb 75f 70f
3:36pm  -  mph 1020.4mb 75f 69f
3:30pm 5 8 mph 1020.5mb 75f 69f
3:24pm 2 8 mph 1020.5mb 75f 69f
3:18pm 7 9 mph 1020.5mb 75f 68f
3:12pm 3 7 mph 1020.5mb 75f 69f
3:06pm 2 8 mph 1020.6mb 75f 69f
3:00pm 3 9 mph 1020.7mb 75f 69f
2:36pm 3 7 mph 1020.9mb 75f 68f
2:30pm 5 10 mph 1020.9mb 75f 67f
2:24pm  -  mph 1021.1mb 75f 68f
2:18pm 6 8 mph 1021.1mb 75f 69f
2:12pm 3 6 mph 1021.2mb 75f 68f
2:06pm 2 5 mph 1021.1mb 75f 67f
2:00pm  -  mph 1021.2mb 75f 67f
1:36pm 2 7 mph 1021.6mb 75f 66f
1:30pm 3 9 mph 1021.7mb 75f 67f
1:24pm 5 9 mph 1021.8mb 75f 67f
1:18pm 1 6 mph 1021.9mb 75f 66f
1:12pm  -  mph 1022mb 75f 65f
1:06pm  -  mph 1022mb 75f 65f
1:00pm 3 8 mph 1022.1mb 75f 65f
12:36pm 3 8 mph 1022.2mb 75f 65f
12:30pm 2 5 mph 1022.2mb 75f 66f
12:24pm 3 8 mph 1022.3mb 75f 65f
12:18pm 3 8 mph 1022.4mb 75f 64f
12:12pm  -  mph 1022.4mb 75f 65f
12:06pm 5 8 mph 1022.4mb 75f 65f
12:00pm 6 9 mph 1022.5mb 75f 66f
11:36am  -  mph 1022.8mb 75f 64f
11:30am 5 10 mph 1022.9mb 75f 63f
11:24am 3 10 mph 1022.8mb 75f 64f
11:18am 3 8 mph 1022.8mb 75f 64f
11:12am 5 9 mph 1022.9mb 75f 63f
11:06am  -  mph 1022.9mb 75f 63f
11:00am 3 9 mph 1022.9mb 75f 62f
10:36am 3 10 mph 1023mb 75f 62f
10:30am 5 9 mph 1023mb 75f 63f
10:24am 5 7 mph 1023mb 75f 62f
10:18am 2 6 mph 1023mb 75f 62f
10:12am 2 3 mph 1023mb 75f 62f
10:06am 3 6 mph 1023mb 75f 62f
10:00am 1 6 mph 1023mb 75f 61f
9:36am 1 6 mph 1023.1mb 75f 62f
9:30am 3 6 mph 1023mb 75f 62f
9:24am 2 5 mph 1022.9mb 75f 62f
9:18am  -  2 mph 1022.9mb 75f 61f
9:12am  -  6 mph 1022.9mb 75f 61f
9:06am 3 6 mph 1022.9mb 75f 60f
9:00am 3 6 mph 1022.9mb 75f 59f
8:36am  -  2 mph 1023mb 75f 57f
8:30am 2 5 mph 1022.9mb 75f 56f
8:24am 3 5 mph 1022.9mb 75f 58f
8:18am 1 2 mph 1022.8mb 75f 57f
8:12am 1 2 mph 1022.9mb 75f 56f
8:06am 1 2 mph 1022.9mb 75f 54f
8:00am  -  2 mph 1022.9mb 75f 53f
7:36am 1 2 mph 1022.9mb 75f 53f
7:30am  -  2 mph 1022.8mb 75f 52f
7:24am  -  2 mph 1022.8mb 75f 52f
7:18am  -  2 mph 1022.7mb 75f 52f
7:12am 1 2 mph 1022.6mb 75f 52f
7:06am  -  2 mph 1022.6mb 75f 51f
7:00am 1 2 mph 1022.5mb 75f 52f
6:36am  -  mph 1022.4mb 75f 52f
6:30am  -  1 mph 1022.3mb 75f 53f
6:24am  -  2 mph 1022.3mb 75f 52f
6:18am  -  2 mph 1022.2mb 75f 53f
6:12am  -  2 mph 1022.2mb 75f 53f
6:06am  -  2 mph 1022.1mb 75f 53f
6:00am  -  1 mph 1022.1mb 75f 53f
5:36am  -  mph 1021.9mb 75f 53f
5:30am  -  1 mph 1021.9mb 75f 54f
5:24am  -  2 mph 1021.8mb 75f 53f
5:18am  -  2 mph 1021.6mb 75f 53f
5:12am 1 2 mph 1021.6mb 75f 54f
5:06am 1 3 mph 1021.6mb 75f 55f
5:00am 2 3 mph 1021.5mb 75f 55f
4:36am 3 5 mph 1021.3mb 75f 55f
4:30am 1 3 mph 1021.3mb 75f 55f
4:24am 2 5 mph 1021.3mb 75f 55f
4:18am  -  mph 1021.3mb 75f 55f
4:12am 1 3 mph 1021.2mb 75f 55f
4:06am 1 5 mph 1021.1mb 75f 55f
4:00am 1 5 mph 1021mb 75f 55f
3:54am 1 2 mph 1021mb 75f 55f
3:48am 1 3 mph 1021mb 75f 56f
3:36am  -  3 mph 1021mb 75f 56f
3:30am 1 3 mph 1021mb 75f 56f
3:24am 1 2 mph 1021mb 75f 56f
3:18am  -  2 mph 1021mb 75f 56f
3:12am 2 3 mph 1021.1mb 75f 56f
3:06am 2 3 mph 1021.1mb 76f 56f
3:00am  -  mph 1021.1mb 76f 57f
2:54am 2
mph
1021.1mb 76f 57f
2:48am  -  2 mph 1021.1mb 76f 57f
2:36am  -  2 mph 1021.2mb 76f 56f
2:30am 2 3 mph 1021.3mb 76f 57f
2:24am 1 5 mph 1021.3mb 76f 57f
2:18am 2 7 mph 1021.3mb 76f 57f
2:12am 1 3 mph 1021.3mb 76f 58f
2:06am 1 2 mph 1021.2mb 76f 58f
2:00am 2 5 mph 1021.2mb 76f 58f
1:54am 1 3 mph 1021.1mb 76f 58f
1:48am 1 3 mph 1021.1mb 76f 58f
1:36am  -  3 mph 1020.9mb 76f 58f
1:30am 2 3 mph 1020.9mb 76f 57f
1:24am 1 3 mph 1020.9mb 76f 57f
1:18am 1 2 mph 1020.8mb 76f 57f
1:12am  -  2 mph 1020.7mb 76f 57f
1:06am  -  2 mph 1020.7mb 76f 58f
1:00am  -  1 mph 1020.7mb 76f 58f
12:54am  -  2 mph 1020.7mb 76f 58f
12:48am 1 2 mph 1020.7mb 76f 58f
12:36am  -  2 mph 1020.7mb 76f 59f
12:30am 1 2 mph 1020.7mb 76f 60f
12:24am  -  2 mph 1020.7mb 76f 60f
12:18am  -  2 mph 1020.7mb 76f 60f
12:12am 1 2 mph 1020.8mb 76f 61f
12:06am  -  1 mph 1020.8mb 76f 60f
12:00am  -  1 mph 1020.8mb 76f 61f
Sat 09/24 11:54pm  -  2 mph 1020.8mb 76f 61f
11:48pm  -  2 mph 1020.8mb 76f 62f
11:36pm  -  3 mph 1020.9mb 76f 62f
11:30pm 2 6 mph 1020.9mb 76f 63f
11:24pm 3 7 mph 1020.9mb 76f 63f
11:18pm 5 6 mph 1020.9mb 76f 61f
11:12pm 3 6 mph 1020.9mb 76f 61f
11:06pm  -  1 mph 1020.8mb 76f 62f
11:00pm  -  1 mph 1020.9mb 76f 61f
10:54pm 1
mph
1020.9mb 76f 62f
10:48pm  -  1 mph 1020.9mb 76f 61f
10:36pm  -  2 mph 1020.8mb 76f 62f
10:30pm  -  1 mph 1020.8mb 76f 62f
10:24pm  -  1 mph 1020.8mb 76f 63f
10:18pm 1 2 mph 1020.7mb 76f 63f
10:12pm  -  3 mph 1020.7mb 76f 63f
10:06pm 1 3 mph 1020.7mb 76f 63f
10:00pm  -  mph 1020.7mb 76f 65f
9:54pm 2 5 mph 1020.6mb 76f 65f
9:48pm 2 3 mph 1020.6mb 76f 64f
9:36pm 6 9 mph 1020.5mb 76f 65f
9:30pm 2 5 mph 1020.4mb 76f 65f
9:24pm 3 5 mph 1020.4mb 76f 65f
9:18pm  -  mph 1020.4mb 76f 65f
9:12pm  -  mph 1020.3mb 76f 65f
9:06pm 3 6 mph 1020.3mb 76f 65f
9:00pm 5 7 mph 1020.3mb 76f 65f
8:54pm 5 7 mph 1020.2mb 76f 66f
8:48pm 3 6 mph 1020.2mb 76f 65f
8:36pm 2 5 mph 1019.9mb 76f 65f
8:30pm  -  2 mph 1019.7mb 76f 63f
8:24pm  -  2 mph 1019.6mb 76f 64f
8:18pm  -  1 mph 1019.5mb 76f 64f
8:12pm  -  2 mph 1019.5mb 76f 66f
8:06pm  -  1 mph 1019.4mb 76f 67f
8:00pm 1 2 mph 1019.4mb 76f 66f
7:54pm  -  mph 1019.3mb 76f 65f
7:48pm 1 2 mph 1019.3mb 76f 65f
7:36pm 2
mph
1019.1mb 76f 66f
7:30pm 1 2 mph 1019.1mb 76f 67f
7:24pm 1 2 mph 1019mb 76f 68f
7:18pm 1
mph
1018.9mb 76f 68f
7:12pm  -  1 mph 1018.9mb 76f 69f
7:06pm 1 2 mph 1018.9mb 76f 69f
7:00pm 1 2 mph 1018.8mb 76f 69f
6:36pm 1 2 mph 1018.6mb 76f 71f
6:30pm 2 5 mph 1018.6mb 76f 71f
6:24pm 1 3 mph 1018.5mb 76f 72f
6:18pm  -  mph 1018.5mb 75f 72f
6:12pm 2 5 mph 1018.4mb 75f 72f
6:06pm  -  mph 1018.4mb 75f 72f
6:00pm 2 6 mph 1018.4mb 75f 73f
5:54pm  -  mph 1018.3mb 75f 73f
5:48pm  -  mph 1018.3mb 75f 73f
5:36pm 3 7 mph 1018.3mb 75f 73f
5:30pm 1 6 mph 1018.3mb 75f 74f
5:24pm 2 6 mph 1018.2mb 75f 73f
5:18pm 3 6 mph 1018.2mb 75f 72f
5:12pm 3 7 mph 1018.1mb - 72f
5:06pm  -  mph 1018.1mb 75f 71f
5:00pm 6 8 mph 1018.1mb 75f 72f
4:54pm 5 10 mph 1018.1mb 75f 71f
4:48pm 3 7 mph 1018.2mb 75f 71f
4:36pm  -  mph 1018.1mb 75f 70f
4:30pm 3 7 mph 1018.1mb 75f 70f
4:24pm 5 8 mph 1018.1mb 75f 71f
4:18pm 3 7 mph 1018.2mb 75f 70f
4:12pm 5 9 mph - - -
4:06pm  -  mph 1018.4mb 75f 70f
4:00pm 5 9 mph 1018.3mb 75f 69f
3:54pm 1 5 mph 1018.4mb 75f 69f
3:48pm 1 5 mph 1018.5mb 75f 69f
3:36pm 5 6 mph 1018.5mb 76f 68f
3:30pm 3 7 mph 1018.6mb 76f 69f
3:24pm 6 7 mph 1018.6mb 76f 67f
3:18pm 2 8 mph 1018.6mb 76f 67f
3:12pm 3 6 mph 1018.6mb 76f 67f
3:06pm  -  mph 1018.7mb 76f 67f
3:00pm 5 7 mph 1018.8mb 76f 67f
2:54pm 3 7 mph 1018.8mb 76f 67f
2:48pm 2 6 mph 1018.7mb 76f 66f
2:36pm 3 8 mph 1018.8mb 76f 66f
2:30pm 2 5 mph 1018.9mb 76f 66f
2:24pm 3 8 mph 1018.9mb 76f 67f
2:18pm 5 8 mph 1018.9mb 76f 65f
2:12pm 6 9 mph 1019mb 76f 65f
2:06pm  -  mph 1019.2mb 76f 65f
2:00pm 5 10 mph 1019.3mb 76f 65f
1:54pm 5 10 mph 1019.3mb 76f 66f
1:48pm 7 11 mph 1019.4mb 76f 66f
1:36pm 7 10 mph 1019.6mb 76f 66f
1:30pm 5 10 mph 1019.8mb 76f 65f
1:24pm 6 9 mph 1019.8mb 76f 65f
1:18pm 6 9 mph 1019.8mb 76f 65f
1:06pm 3 7 mph 1019.9mb 76f 64f
1:00pm 5 8 mph 1019.9mb 76f 65f
12:54pm 3 8 mph 1019.9mb 76f 65f
12:48pm 6 11 mph 1020mb 76f 64f
12:36pm 5 8 mph 1019.9mb 76f 64f
12:30pm 6 8 mph 1020mb 76f 64f
12:24pm 2 8 mph 1019.9mb 76f 64f
12:18pm 7 10 mph 1019.9mb 76f 64f
12:12pm 7 11 mph 1019.9mb 76f 64f
12:06pm 7 10 mph 1019.9mb 76f 64f
12:00pm 6 11 mph 1020mb 76f 63f
11:54am 7 11 mph 1020mb 76f 63f
11:48am  -  mph 1020.1mb 76f 63f
11:36am 7 11 mph 1020mb 76f 63f
11:30am 8 11 mph 1020.1mb 76f 63f
11:24am 5 8 mph 1020mb 76f 63f
11:18am 6 9 mph 1020mb 76f 63f
11:12am 6 10 mph 1020mb 76f 62f
11:06am 7 10 mph 1019.9mb 76f 62f
11:00am 3 8 mph 1019.9mb 76f 62f
10:54am 6 9 mph 1019.9mb 76f 62f
10:48am 3 9 mph 1020mb 76f 61f
10:36am 5 8 mph 1020mb 76f 61f
10:30am 3 8 mph 1020mb 76f 61f
10:24am 6 9 mph 1020mb 76f 61f
10:18am 3 9 mph 1020.1mb 76f 60f
10:12am 5 9 mph 1019.9mb 76f 60f
10:06am 5 7 mph 1019.9mb 76f 60f
10:00am  -  mph 1019.8mb 76f 60f
9:54am 6 10 mph 1019.8mb 76f 61f
9:48am 7 11 mph 1019.8mb 76f 60f
9:36am 7 13 mph 1019.6mb 76f 61f
9:30am 5 8 mph 1019.6mb 76f 61f
9:24am 7 10 mph 1019.5mb 76f 61f
9:18am 6 9 mph 1019.5mb 76f 61f
9:12am 5 13 mph 1019.5mb 76f 61f
9:06am 9 13 mph 1019.5mb 76f 61f
9:00am 6 11 mph 1019.6mb 76f 61f
8:54am 8 11 mph 1019.5mb 76f 62f
8:48am 7 11 mph 1019.4mb 76f 62f
8:36am 7 14 mph 1019.3mb 76f 62f
8:30am 9 15 mph 1019.2mb 76f 62f
8:24am 6 13 mph 1019.2mb 76f 62f
8:18am 7 17 mph 1019.1mb 76f 62f
8:12am 7 14 mph 1019mb 76f 62f
8:06am 7 14 mph 1018.9mb 76f 63f
8:00am 6 13 mph 1019mb 76f 63f
7:54am 7 11 mph 1018.8mb 76f 63f
7:48am 7 10 mph 1018.6mb 76f 63f
7:36am 7 13 mph 1018.3mb 76f 64f
7:30am 6 11 mph 1018.3mb 76f 63f
7:24am 5 10 mph 1018.1mb 76f 64f
7:18am 6 11 mph 1018mb 76f 64f
7:12am 6 10 mph 1017.8mb 76f 64f
7:06am 3 7 mph 1017.7mb 76f 64f
7:00am 5 6 mph 1017.5mb 76f 64f
6:54am 5 9 mph 1017.4mb 76f 64f
6:48am 6 9 mph 1017.4mb 76f 64f
6:36am 5 8 mph 1017.3mb 76f 64f
6:30am 6 9 mph 1017.2mb 76f 64f
6:24am 7 11 mph 1017.2mb 76f 64f
6:18am 6 10 mph 1017.2mb 76f 64f
6:12am 7 10 mph 1017.1mb 76f 65f
6:06am  -  mph 1017mb 76f 65f
6:00am 6 14 mph 1017mb 76f 65f
5:54am 8 15 mph 1017mb 76f 65f
5:48am 5 10 mph 1016.8mb 76f 65f
5:36am 7 11 mph 1016.8mb 76f 65f
5:30am 6 10 mph 1016.9mb 76f 65f
5:24am 6 11 mph 1016.8mb 76f 65f
5:18am 6 9 mph 1016.8mb 76f 65f
5:12am 5 9 mph 1016.8mb 76f 65f
5:06am 7 14 mph 1016.7mb 76f 65f
5:00am 9 13 mph 1016.7mb 76f 66f
4:54am 7 11 mph 1016.7mb 76f 66f
4:48am 7 10 mph 1016.5mb 76f 66f
4:36am 9 15 mph 1016.4mb 76f 66f
4:30am 13 18 mph 1016.5mb 76f 66f
4:24am  -  mph 1016.5mb 76f 67f
4:18am 6 11 mph 1016.4mb 76f 67f
4:12am 7 15 mph 1016.4mb 76f 67f
4:06am 10 16 mph 1016.1mb 76f 68f
4:00am 13 18 mph 1016mb 76f 68f
3:54am 10 16 mph 1015.8mb 76f 69f
3:48am 9 13 mph 1015.8mb 76f 69f
3:36am 7 11 mph 1016mb 76f 70f
3:30am 5 9 mph 1015.9mb 76f 71f
3:24am 7 10 mph 1015.7mb 76f 71f
3:18am 6 11 mph 1015.6mb 76f 71f
3:12am 7 11 mph 1015.5mb 76f 71f
3:06am 8 11 mph 1015.5mb 76f 71f
3:00am 6 11 mph 1015.5mb 76f 72f
2:54am 5 10 mph 1015.5mb 76f 72f
2:48am 7 10 mph 1015.4mb 76f 72f
2:36am 7 10 mph 1015.3mb 76f 72f
2:30am 7 14 mph 1015.2mb 76f 72f
2:24am  -  mph 1015.1mb 76f 72f
2:18am 6 7 mph 1015mb 76f 72f
2:12am 3 8 mph 1015mb 76f 73f
2:06am 6 8 mph 1015.1mb 76f 73f
2:00am 5 8 mph 1015.1mb 76f 73f
1:54am 2 7 mph 1015.2mb 76f 73f
1:48am 2 5 mph 1015mb 76f 73f
1:36am 2 6 mph 1015.1mb 77f 73f
1:30am 2 5 mph 1015.1mb 77f 73f
1:24am 2 3 mph 1015mb 77f 72f
1:18am 1 3 mph 1014.9mb 77f 73f
1:12am 1 5 mph 1014.7mb 77f 73f
1:06am 2 5 mph 1014.7mb 77f 73f
1:00am 3 6 mph 1014.7mb 77f 73f
12:54am  -  3 mph 1014.8mb 77f 72f
12:48am  -  5 mph 1015mb 77f 71f
12:36am  -  2 mph 1014.5mb 77f 72f
12:30am  -  mph 1014.5mb 77f 73f
12:24am 1 3 mph 1014.6mb 77f 72f
12:18am 2 5 mph 1014.5mb 77f 72f
12:12am 2 3 mph 1014.5mb 77f 72f
12:06am 2 3 mph 1014.5mb 77f 72f
12:00am 2 3 mph 1014.5mb 77f 72f
Fri 09/23 11:54pm 3 5 mph 1014.5mb 77f 72f
11:48pm 2 3 mph 1014.5mb 77f 72f
11:36pm 3 5 mph 1014.6mb 77f 72f
11:30pm 2 3 mph 1014.6mb 77f 72f
11:24pm 1 2 mph 1014.6mb 77f 72f
11:18pm 2 3 mph 1014.5mb 77f 72f
11:12pm 2 3 mph 1014.5mb 77f 72f
11:06pm 2 5 mph 1014.5mb 77f 72f
11:00pm 2 5 mph 1014.5mb 77f 72f
10:54pm 2 5 mph 1014.4mb 77f 72f
10:48pm 1 5 mph 1014.4mb 77f 72f
10:36pm 1 3 mph 1014.4mb 77f 73f
10:30pm 1 5 mph 1014.4mb 77f 73f
10:24pm  -  2 mph 1014.4mb 77f 73f
10:18pm 1 5 mph 1014.4mb 77f 73f
10:12pm  -  3 mph 1014.4mb 77f 74f
10:06pm  -  1 mph 1014.4mb 77f 74f
10:00pm  -  1 mph 1014.4mb 77f 74f
9:54pm  -  2 mph 1014.4mb 77f 74f
9:48pm  -  3 mph 1014.3mb 77f 75f
9:36pm 2 3 mph 1014.3mb 77f 75f
9:30pm 2 3 mph 1014.2mb 77f 76f
9:24pm 1 3 mph 1014.2mb 77f 76f
9:18pm  -  2 mph 1014.1mb 77f 76f
9:12pm  -  5 mph 1014.1mb 77f 76f
9:06pm 1 3 mph 1014.1mb 77f 76f
9:00pm  -  mph 1014mb 77f 76f
8:54pm  -  mph 1013.9mb 77f 76f
8:48pm  -  1 mph 1013.9mb 77f 76f
8:36pm  -  1 mph 1013.9mb 77f 76f
8:30pm 1 2 mph 1013.8mb 77f 76f
8:24pm 2 3 mph 1013.8mb 77f 76f
8:18pm 2
mph
1013.8mb 77f 76f
8:12pm  -  1 mph 1013.8mb 77f 76f
8:06pm  -  mph 1013.8mb 77f 76f
8:00pm  -  mph 1013.7mb 77f 76f
7:54pm  -  mph 1013.7mb 77f 76f
7:48pm  -  mph 1013.6mb 77f 76f
7:36pm  -  mph 1013.7mb 77f 79f
7:30pm  -  mph 1013.7mb 77f 80f
7:24pm  -  mph 1013.7mb 77f 80f
7:18pm  -  1 mph 1013.6mb 77f 80f
7:12pm 1 2 mph 1013.7mb 77f 81f
7:06pm 1 2 mph 1013.7mb 77f 81f
7:00pm 2
mph
1013.6mb 77f 82f
6:54pm 2 3 mph 1013.6mb 77f 82f
6:48pm 2
mph
1013.6mb 77f 83f
6:36pm 2 3 mph 1013.6mb 77f 83f
6:30pm 2 5 mph 1013.6mb 77f 84f
6:24pm 2
mph
1013.6mb 77f 85f
6:18pm 1 2 mph 1013.6mb 77f 85f
6:12pm 2 3 mph 1013.6mb 77f 85f
6:06pm  -  mph 1013.5mb 77f 86f
6:00pm  -  mph 1013.4mb 76f 86f
5:36pm 1 2 mph 1013.4mb 76f 87f
5:30pm 1 2 mph 1013.5mb 76f 87f
5:24pm 3 5 mph 1013.4mb 76f 86f
5:18pm 2 5 mph 1013.5mb 76f 86f
5:12pm 2 3 mph - - -
5:06pm 2 3 mph 1013.5mb 76f 87f
5:00pm 3
mph
1013.5mb 76f 88f
4:54pm  -  3 mph 1013.5mb 76f 87f
4:48pm 3 5 mph 1013.5mb 76f 87f
4:36pm 1 3 mph 1013.4mb 76f 87f
4:30pm 2 7 mph 1013.5mb 76f 86f
4:24pm 7 9 mph 1013.5mb 76f 86f
4:18pm 6
mph
1013.6mb 76f 86f
4:12pm 1 5 mph 1013.5mb 76f 86f
4:06pm 3 9 mph 1013.5mb 76f 86f
4:00pm  -  mph 1013.5mb 76f 86f
3:54pm 5 8 mph 1013.5mb 76f 86f
3:48pm 5 9 mph 1013.5mb 76f 85f
3:36pm 5 7 mph 1013.7mb 76f 88f
3:30pm 3 5 mph 1013.8mb 76f 88f
3:24pm  -  mph 1013.8mb 76f 85f
3:18pm 5 8 mph 1013.9mb 76f 85f
3:12pm 5 8 mph - - -
3:06pm 5 7 mph 1014mb 76f 85f
3:00pm 3 6 mph 1014.1mb 76f 84f
2:54pm 2 7 mph 1014mb 76f 85f
2:48pm 8 10 mph 1014.1mb 76f 85f
2:36pm 6 10 mph 1014.3mb 76f 84f
2:30pm 7 10 mph 1014.3mb 76f 84f
2:24pm 8 10 mph 1014.4mb 76f 84f
2:18pm 6 8 mph 1014.5mb 76f 83f
2:12pm 3 8 mph 1014.6mb 76f 84f
2:06pm 5 10 mph 1014.6mb 76f 83f
2:00pm 8 10 mph 1014.7mb 76f 83f
1:54pm  -  mph 1014.8mb 76f 82f
1:48pm 6 10 mph 1014.9mb 76f 83f
1:36pm 3 7 mph 1015.1mb 76f 82f
1:30pm 7 8 mph 1015.1mb 76f 82f
1:24pm 7 10 mph 1015.3mb 76f 81f
1:18pm 8 9 mph 1015.4mb 76f 81f
1:12pm 7 9 mph - - -
1:06pm 7 8 mph 1015.6mb 76f 80f
1:00pm  -  mph 1015.8mb 76f 80f
12:54pm 6 7 mph 1015.8mb 76f 79f
12:48pm 6 7 mph 1015.8mb 76f 79f
12:36pm 5 6 mph 1015.8mb 76f 78f
12:30pm 3 5 mph 1015.9mb 76f 78f
12:24pm 5 6 mph 1016mb 76f 78f
12:18pm 3 6 mph 1016.1mb 76f 77f
12:12pm 6 7 mph 1016.3mb 76f 77f
12:06pm 6 7 mph 1016.4mb 76f 77f
12:00pm 5 6 mph 1016.4mb 76f 76f
11:54am 5 6 mph 1016.5mb 76f 76f
11:48am 5 6 mph 1016.3mb 76f 77f
11:36am 6 7 mph 1016.9mb 76f 75f
11:30am 7
mph
1016.9mb 76f 75f
11:24am 6
mph
1017mb 76f 75f
11:18am 6
mph
1017mb 76f 74f
11:12am 3 5 mph 1017.1mb 76f 74f
11:06am 5 6 mph 1017mb 76f 74f
11:00am 3 5 mph 1017mb 76f 73f
10:54am 2 3 mph 1017mb 76f 73f
10:48am 3 5 mph 1017.1mb 76f 73f
10:36am 3 5 mph 1017.2mb 76f 72f
10:30am 3 5 mph 1017.3mb 76f 72f
10:24am  -  mph 1017.4mb 76f 72f
10:18am 2 3 mph 1017.4mb 76f 71f
10:12am 1 2 mph 1017.4mb 76f 71f
10:06am  -  1 mph 1017.4mb 76f 71f
10:00am 1 2 mph 1017.4mb 76f 71f
9:36am 1 3 mph 1017.5mb 76f 69f
9:30am 1 2 mph 1017.4mb 76f 69f
9:24am  -  2 mph 1017.5mb 76f 69f
9:18am  -  2 mph 1017.6mb 76f 69f
9:12am 2
mph
1017.6mb 76f 71f
9:06am 2 3 mph 1017.8mb 76f 70f
9:00am  -  mph 1017.9mb 76f 68f
8:54am 1 2 mph 1018mb 76f 68f
8:48am  -  mph 1018mb 76f 68f
8:36am  -  1 mph 1018mb 76f 67f
8:30am  -  1 mph 1017.9mb 76f 67f
8:24am 1 2 mph 1018mb 76f 66f
8:18am 1 2 mph 1018mb 76f 66f
8:12am 1 2 mph 1018mb 76f 66f
8:06am 1 3 mph 1017.9mb 76f 66f
8:00am 3 5 mph 1017.9mb 76f 66f
7:54am 2 3 mph 1017.8mb 76f 66f
7:48am 1 2 mph 1017.7mb 76f 66f
7:36am  -  1 mph 1017.7mb 76f 65f
7:30am  -  1 mph 1017.8mb 76f 65f
7:24am 1 2 mph 1017.7mb 76f 64f
7:18am 1
mph
1017.7mb 76f 64f
7:12am 1 2 mph 1017.7mb 76f 65f
7:06am  -  1 mph 1017.7mb 76f 65f
7:00am  -  1 mph 1017.7mb 76f 64f
6:54am  -  1 mph 1017.7mb 76f 64f
6:48am 1 2 mph 1017.6mb 76f 64f
6:36am  -  1 mph 1017.6mb 76f 65f
6:30am  -  1 mph 1017.6mb 76f 65f
6:24am 1 2 mph 1017.5mb 76f 64f
6:18am 1 2 mph 1017.6mb 76f 64f
6:12am 1 3 mph 1017.6mb 76f 64f
6:06am  -  2 mph 1017.6mb 76f 63f
6:00am 1 3 mph 1017.6mb 76f 63f
5:54am 2 3 mph 1017.7mb 76f 63f
5:48am 3 5 mph 1017.7mb 76f 63f
5:36am 2
mph
1017.6mb 76f 63f
5:30am 1 2 mph 1017.6mb 76f 63f
5:24am  -  2 mph 1017.6mb 76f 63f
5:18am  -  1 mph 1017.6mb 76f 63f
5:12am  -  1 mph 1017.5mb 76f 63f
5:06am  -  1 mph 1017.5mb 76f 62f
5:00am  -  1 mph 1017.5mb 76f 62f
4:54am  -  1 mph 1017.5mb 76f 62f
4:48am  -  1 mph 1017.5mb 76f 62f
4:36am  -  1 mph 1017.5mb 76f 62f
4:30am  -  2 mph 1017.6mb 76f 62f
4:24am  -  2 mph 1017.6mb 76f 61f
4:18am 1 2 mph 1017.7mb 76f 61f
4:12am  -  1 mph 1017.7mb 76f 61f
4:06am  -  1 mph 1017.7mb 76f 60f
4:00am  -  mph 1017.7mb 76f 60f
3:54am  -  2 mph 1017.7mb 76f 60f
3:48am  -  1 mph 1017.7mb 76f 61f
3:36am  -  2 mph 1017.5mb - 60f
3:30am  -  1 mph 1017.5mb - -
3:24am  -  1 mph 1017.5mb 76f 61f
3:18am  -  1 mph 1017.5mb 76f 61f
3:12am  -  mph 1017.5mb 76f 61f
3:06am  -  1 mph 1017.6mb 76f 61f
3:00am  -  mph 1017.6mb 76f 61f
2:54am  -  1 mph 1017.7mb 76f 61f
2:48am  -  1 mph 1017.8mb 76f 60f
2:36am  -  1 mph 1017.8mb 76f 61f
2:30am  -  mph 1017.7mb 76f 61f
2:24am  -  1 mph 1017.6mb 76f 61f
2:18am  -  1 mph 1017.6mb 76f 61f
2:12am  -  1 mph 1017.7mb 76f 61f
2:06am  -  1 mph 1017.8mb 76f 61f
2:00am  -  1 mph 1017.8mb 76f 62f
1:54am  -  1 mph 1017.8mb 76f 62f
1:48am 2 3 mph 1017.7mb 76f 61f
1:36am  -  1 mph 1017.7mb 76f 63f
1:30am  -  1 mph 1017.8mb 76f 62f
1:24am 1 3 mph 1017.9mb 76f 62f
1:18am 2 5 mph 1017.9mb 76f 62f
1:12am  -  1 mph 1017.9mb 76f 62f
1:06am 1 2 mph 1017.9mb 76f 62f
1:00am  -  1 mph 1018mb 77f 63f
12:36am  -  mph 1018.2mb 77f 63f
12:30am  -  3 mph 1018.3mb 77f 64f
12:24am  -  2 mph 1018.3mb 77f 64f
12:18am  -  mph 1018.4mb 77f 64f
12:12am  -  2 mph 1018.5mb 77f 64f
12:06am  -  1 mph 1018.4mb 77f 64f
12:00am  -  mph 1018.5mb 77f 64f
Thu 09/22 11:54pm  -  1 mph 1018.6mb 77f 64f
11:48pm  -  mph 1018.6mb 77f 64f
11:36pm  -  1 mph 1018.8mb 77f 65f
11:30pm  -  1 mph 1018.8mb 77f 64f
11:24pm  -  mph 1018.8mb 77f 64f
11:18pm  -  1 mph 1018.8mb 77f 65f
11:12pm  -  mph 1018.8mb 77f 66f
11:06pm  -  mph 1018.8mb 77f 66f
11:00pm  -  3 mph 1018.8mb 77f 66f
10:54pm 2 3 mph 1018.8mb 77f 66f
10:48pm 3
mph
1018.9mb 77f 66f
10:36pm 1 2 mph 1018.8mb 77f 67f
10:30pm 1 2 mph 1018.8mb 77f 67f
10:24pm 1 2 mph 1018.8mb 77f 67f
10:18pm 1 2 mph 1018.8mb 77f 67f
10:12pm 2 3 mph 1018.8mb 77f 67f
10:06pm 1 3 mph 1018.8mb 77f 68f
10:00pm 2
mph
1018.9mb 77f 68f
9:54pm 1 2 mph 1019mb 77f 68f
9:48pm 1 2 mph 1019mb 77f 68f
9:36pm 1 2 mph 1019mb 77f 69f
9:30pm 2 3 mph 1019mb 77f 69f
9:24pm 1 3 mph 1018.9mb 77f 69f
9:18pm  -  mph 1019mb 77f 69f
9:12pm 3 5 mph 1018.9mb 77f 69f
9:06pm 2 5 mph 1019mb 77f 70f
9:00pm 1 3 mph 1019mb 77f 70f
8:54pm 2 5 mph 1019mb 77f 70f
8:48pm 3 6 mph 1019.1mb 77f 70f
8:36pm 3 5 mph 1019.1mb - 71f
8:30pm 3 6 mph 1019.1mb 77f 71f
8:24pm 2 5 mph 1019.1mb 77f 72f
8:18pm 3 5 mph 1019mb 77f 72f
8:12pm 5 6 mph 1019mb 77f 73f
8:06pm 3 5 mph 1019mb 77f 73f
8:00pm 1 3 mph 1019mb 77f 74f
7:54pm  -  mph 1018.9mb 77f 74f
7:48pm  -  mph 1018.9mb 77f 74f
7:36pm 2 3 mph 1018.8mb 77f 75f
7:30pm 2 3 mph 1018.7mb 77f 75f
7:24pm 3 6 mph 1018.7mb 77f 76f
7:18pm 2 3 mph 1018.7mb 77f 76f
7:12pm 2 3 mph 1018.7mb 77f 76f
7:06pm  -  mph 1018.6mb 77f 77f
7:00pm 2 5 mph 1018.6mb 77f 77f
6:54pm 3 6 mph 1018.6mb 77f 78f
6:48pm  -  mph 1018.6mb 77f 78f
6:36pm 5 8 mph 1018.5mb 77f 79f
6:30pm 6 8 mph 1018.5mb 77f 79f
6:24pm 6 9 mph 1018.4mb 77f 79f
6:18pm  -  mph 1018.4mb 77f 80f
6:12pm 5 8 mph 1018.4mb 77f 80f
6:06pm 7 9 mph 1018.3mb 77f 80f
6:00pm 7 9 mph 1018.3mb 77f 80f
5:54pm 7 9 mph 1018.3mb 77f 80f
5:48pm 8 9 mph 1018.3mb 77f 81f
5:36pm 7 9 mph 1018.3mb 77f 81f
5:30pm 8 11 mph 1018.4mb 77f 81f
5:24pm 8 9 mph 1018.4mb 77f 81f
5:18pm  -  mph 1018.4mb 77f 81f
5:12pm 8 10 mph 1018.4mb - 81f
5:06pm 7 9 mph 1018.4mb 77f 82f
5:00pm 6 8 mph 1018.5mb 77f 82f
4:54pm 7 10 mph 1018.4mb 77f 82f
4:48pm 8 11 mph 1018.4mb 77f 82f
4:36pm 7 10 mph 1018.4mb 76f 82f
4:30pm 6 9 mph 1018.5mb 76f 82f
4:24pm 7 10 mph 1018.5mb 76f 82f
4:18pm 7 10 mph 1018.6mb 76f 82f
4:12pm 6 8 mph 1018.7mb - 82f
4:06pm 5 8 mph 1018.8mb 76f 82f
4:00pm 5 7 mph 1018.7mb 76f 82f
3:36pm 7 9 mph 1018.7mb 76f 83f
3:30pm 5 7 mph 1018.7mb 76f 82f
3:24pm 2 9 mph 1018.7mb 76f 83f
3:18pm 7 9 mph 1018.8mb 76f 81f
3:12pm 6 7 mph 1018.8mb 76f 82f
3:06pm 5 8 mph 1018.9mb 76f 82f
3:00pm 5 8 mph 1018.9mb 76f 82f
2:54pm 7 11 mph 1019mb 76f 82f
2:48pm 5 8 mph 1018.9mb 76f 82f
2:36pm 6 10 mph 1019mb 76f 81f
2:30pm 2 7 mph 1019.1mb 76f 82f
2:24pm 6 10 mph 1019.3mb 76f 81f
2:18pm 7 10 mph 1019.3mb 76f 81f
2:12pm 7 10 mph 1019.3mb 76f 81f
2:06pm 6 10 mph 1019.4mb 76f 81f
2:00pm 8 10 mph 1019.4mb 76f 80f
1:54pm 7 9 mph 1019.5mb 76f 81f
1:48pm 5 9 mph 1019.6mb 76f 81f
1:36pm 8 11 mph 1019.9mb 76f 80f
1:30pm 6 7 mph 1019.9mb 76f 80f
1:24pm 6 10 mph 1019.9mb 76f 80f
1:18pm 7 10 mph 1020mb 76f 79f
1:12pm 6 10 mph - - -
1:06pm 7 9 mph 1020.2mb 76f 80f
1:00pm 8 10 mph 1020.3mb 76f 79f
12:54pm  -  mph 1020.3mb 76f 79f
12:48pm 7 9 mph 1020.3mb 76f 79f
12:36pm 7 11 mph 1020.3mb 76f 79f
12:30pm 7 10 mph 1020.4mb 76f 78f
12:24pm 6 9 mph 1020.4mb 76f 79f
12:18pm 6 8 mph 1020.5mb 76f 78f
12:12pm 8 11 mph 1020.6mb 76f 78f
12:06pm 5 6 mph 1020.7mb 76f 78f
12:00pm 3 6 mph 1020.8mb 76f 78f
11:54am 6 7 mph 1020.9mb 76f 78f
11:48am 6 7 mph 1020.9mb 76f 77f
11:36am 8 10 mph 1021mb 76f 77f
11:30am 7 9 mph 1021mb 76f 77f
11:24am 6 9 mph 1021.1mb 76f 76f
11:18am 6 8 mph 1021.2mb 76f 76f
11:12am 3 6 mph 1021.3mb 76f 76f
11:06am 2 6 mph 1021.3mb 76f 76f
11:00am 3 6 mph 1021.3mb 76f 75f
10:54am 3 5 mph 1021.5mb 76f 75f
10:48am 5 6 mph 1021.7mb 76f 75f
10:36am 3 5 mph 1021.6mb 76f 74f
10:30am 3 6 mph 1021.7mb 77f 74f
10:24am 5 6 mph 1021.7mb 77f 74f
10:18am 5 6 mph 1021.7mb 77f 74f
10:12am 3 5 mph 1021.7mb 77f 74f
10:06am 2 5 mph 1021.6mb 77f 73f
10:00am 3 5 mph 1021.5mb 77f 73f
9:54am 5 7 mph 1021.6mb 77f 74f
9:36am  -  mph 1021.4mb 77f 72f
9:30am 5 6 mph 1021.4mb 77f 71f
9:24am 2 5 mph 1021.4mb 77f 71f
9:18am 2 3 mph 1021.4mb 77f 72f
9:12am 5 7 mph 1021.3mb 77f 72f
9:06am 2 5 mph 1021.2mb 77f 71f
9:00am 2 5 mph 1021.1mb 77f 71f
8:36am 3 5 mph 1021.1mb 77f 70f